Date,TemperatureHighF,TemperatureAvgF,TemperatureLowF,DewpointHighF,DewpointAvgF,DewpointLowF,HumidityHigh,HumidityAvg,HumidityLow,PressureMaxIn,PressureMinIn,WindSpeedMaxMPH,WindSpeedAvgMPH,GustSpeedMaxMPH,PrecipitationSumIn
2013-1-1,20,14,8,15,10,4,88,82,72,30.41,30.22,11,1,11,0.00
2013-1-2,36,25,11,31,20,6,89,82,75,30.32,30.16,17,2,17,0.04
2013-1-3,31,25,16,27,20,12,92,80,68,30.48,30.31,14,1,14,0.01
2013-1-4,28,19,12,18,12,8,92,76,64,30.39,30.22,13,2,13,0.00
2013-1-5,34,23,14,27,17,11,88,78,66,30.32,30.11,23,3,23,0.00
2013-1-6,33,23,14,23,17,10,95,78,63,30.40,30.17,17,1,17,0.01
2013-1-7,37,31,20,30,24,16,88,74,67,30.17,29.98,21,2,21,0.00
2013-1-8,36,26,13,30,21,9,92,83,72,30.24,29.92,15,2,15,0.00
2013-1-9,41,32,20,32,26,16,89,78,60,30.50,30.24,11,0,11,0.00
2013-1-10,36,34,30,35,31,26,94,87,68,30.37,29.70,18,3,18,0.24
2013-1-11,45,38,25,43,35,17,95,91,72,29.81,29.39,32,5,32,0.01
2013-1-12,25,17,12,19,9,4,81,71,58,30.24,29.80,27,6,28,0.00
2013-1-13,21,13,7,13,7,3,86,76,57,30.45,30.23,17,2,17,0.00
2013-1-14,26,16,6,15,8,1,86,72,56,30.57,30.44,6,0,6,0.00
2013-1-15,33,22,10,22,15,6,85,75,63,30.44,30.11,17,1,17,0.00
2013-1-16,50,36,21,37,27,15,84,72,56,30.30,30.00,15,2,15,0.00
2013-1-17,45,34,23,37,28,20,90,81,67,30.49,30.30,10,1,10,0.00
2013-1-18,47,38,30,35,30,26,89,72,59,30.31,29.93,22,3,22,0.00
2013-1-19,54,40,24,38,28,13,83,64,45,30.36,29.91,19,3,21,0.00
2013-1-20,24,19,15,14,10,7,80,66,51,30.50,30.33,14,1,16,0.00
2013-1-21,20,13,10,15,6,-5,82,73,50,30.54,30.43,14,1,14,0.00
2013-1-22,22,16,11,12,9,5,79,73,62,30.48,30.31,13,2,13,0.00
2013-1-23,33,21,12,21,13,4,84,71,56,30.57,30.24,19,3,19,0.00
2013-1-24,20,11,2,7,0,-6,77,62,52,30.61,30.27,16,3,16,0.00
2013-1-25,51,32,17,32,20,7,84,62,38,30.31,30.22,14,2,14,0.00
2013-1-26,57,37,22,30,24,18,84,62,35,30.27,29.98,20,4,20,0.00
2013-1-27,44,40,36,43,36,26,94,89,56,29.99,29.68,19,3,19,0.14
2013-1-28,42,36,31,41,35,30,100,95,93,29.87,29.59,13,1,13,0.02
2013-1-29,37,33,29,36,30,27,95,91,82,29.76,29.63,20,4,20,0.00
2013-1-30,29,21,14,27,17,10,93,83,69,30.02,29.72,25,5,25,0.00
2013-1-31,17,10,2,13,3,-4,83,72,57,30.54,30.01,26,4,26,0.00
2013-2-1,30,17,2,23,10,-4,83,75,70,30.51,30.16,25,2,25,0.00
2013-2-2,51,36,27,39,28,23,90,76,55,30.25,30.09,19,2,19,0.00
2013-2-3,45,36,27,33,28,22,85,72,51,30.26,29.83,22,3,22,0.00
2013-2-4,38,29,24,31,24,19,89,81,71,30.06,29.82,19,2,19,0.00
2013-2-5,53,40,27,35,28,24,89,66,39,30.09,29.90,20,2,20,0.00
2013-2-6,54,43,34,45,35,27,90,75,65,30.08,29.83,21,3,21,0.00
2013-2-7,43,35,27,40,30,23,92,81,71,30.29,29.89,20,2,20,0.00
2013-2-8,40,30,25,31,26,22,89,82,68,30.37,30.15,18,4,18,0.00
2013-2-9,52,39,28,40,33,25,90,79,62,30.16,29.61,27,7,27,0.02
2013-2-10,43,36,31,41,32,22,94,83,69,29.90,29.25,36,10,36,0.05
2013-2-11,39,31,25,26,22,19,83,69,53,30.20,29.90,36,7,36,0.00
2013-2-12,48,33,20,28,22,17,88,65,34,30.20,29.96,19,1,19,0.00
2013-2-13,53,38,25,34,27,20,86,66,40,29.96,29.77,20,2,20,0.00
2013-2-14,43,36,20,32,26,14,85,69,43,30.34,29.86,27,6,28,0.00
2013-2-15,34,24,17,26,18,13,89,78,57,30.44,30.33,25,1,25,0.00
2013-2-16,39,26,12,25,18,8,87,74,54,30.42,30.04,20,1,20,0.00
2013-2-17,61,40,23,35,28,18,85,63,36,30.04,29.55,21,3,21,0.00
2013-2-18,44,33,24,33,24,16,83,69,51,30.13,29.55,31,4,31,0.00
2013-2-19,28,19,11,20,6,0,80,58,32,30.44,30.13,29,4,29,0.00
2013-2-20,23,14,5,13,5,-1,77,65,52,30.45,30.26,23,4,23,0.00
2013-2-21,22,20,19,18,13,7,89,75,52,30.31,29.93,21,5,21,0.00
2013-2-22,21,17,8,19,14,3,98,87,84,30.13,29.93,18,2,18,0.01
2013-2-23,33,19,2,29,14,-2,95,84,79,30.10,29.91,14,1,14,0.02
2013-2-24,42,30,22,32,25,18,89,82,59,30.12,29.95,10,1,10,0.00
2013-2-25,36,30,26,29,25,22,89,81,69,30.12,29.94,16,3,16,0.00
2013-2-26,29,26,22,25,23,20,91,88,82,30.02,29.88,17,3,17,0.00
2013-2-27,39,30,23,28,24,20,91,77,59,30.18,29.99,26,7,26,0.00
2013-2-28,32,29,26,27,23,20,85,80,74,30.30,30.17,21,3,21,0.00
2013-3-1,32,26,20,22,18,14,83,73,58,30.43,30.28,20,2,20,0.00
2013-3-2,41,27,13,26,20,10,89,74,51,30.42,30.11,14,1,14,0.00
2013-3-3,47,35,26,35,28,22,88,77,61,30.12,29.70,19,4,20,0.00
2013-3-4,39,34,28,32,28,16,90,79,55,30.11,29.64,26,3,26,0.00
2013-3-5,33,27,22,21,17,14,80,66,53,30.46,30.10,36,8,36,0.00
2013-3-6,40,27,16,23,18,12,87,71,45,30.50,30.26,18,2,18,0.00
2013-3-7,57,37,23,30,25,18,83,63,35,30.28,30.09,23,6,23,0.00
2013-3-8,60,44,30,44,34,25,92,69,50,30.18,29.88,24,6,24,0.18
2013-3-9,60,48,32,54,44,30,93,87,69,29.88,29.51,29,5,29,0.18
2013-3-10,32,25,20,30,22,18,93,91,90,30.06,29.72,29,8,29,0.01
2013-3-11,32,23,13,28,20,10,91,87,82,30.10,29.96,19,3,19,0.02
2013-3-12,38,31,24,28,24,18,90,77,59,30.40,30.08,27,3,27,0.00
2013-3-13,40,29,15,28,21,11,88,73,56,30.50,30.26,14,1,14,0.00
2013-3-14,64,45,32,46,34,23,82,67,50,30.27,30.07,16,1,16,0.00
2013-3-15,68,51,42,49,41,34,86,69,43,30.07,29.70,15,2,15,0.00
2013-3-16,43,31,26,38,25,20,92,79,70,30.20,29.84,20,3,20,0.00
2013-3-17,47,34,24,32,26,20,87,73,54,30.18,29.75,21,5,21,0.02
2013-3-18,41,35,29,34,23,15,92,63,38,30.11,29.70,33,6,33,0.06
2013-3-19,51,36,26,32,21,16,70,54,33,30.37,30.09,18,1,24,0.00
2013-3-20,40,27,17,19,14,9,80,58,36,30.46,30.14,17,1,18,0.00
2013-3-21,30,26,21,22,17,13,86,70,58,30.14,29.94,17,4,19,0.00
2013-3-22,32,29,25,27,23,18,88,79,62,30.09,30.00,15,2,15,0.00
2013-3-23,32,30,29,28,25,21,91,82,68,30.16,30.05,17,3,17,0.05
2013-3-24,29,25,21,26,19,15,90,77,60,30.19,30.12,25,6,25,0.00
2013-3-25,29,26,23,22,20,17,88,78,67,30.42,30.19,28,5,28,0.00
2013-3-26,44,30,16,24,19,12,89,66,42,30.45,30.27,12,1,12,0.00
2013-3-27,54,39,26,33,26,21,82,62,43,30.29,30.17,17,4,17,0.00
2013-3-28,61,45,29,35,31,26,92,61,34,30.26,30.14,16,2,16,0.00
2013-3-29,70,56,38,41,36,30,82,51,29,30.20,29.99,20,4,20,0.00
2013-3-30,67,57,50,53,46,38,91,68,36,30.06,29.89,19,3,19,0.52
2013-3-31,61,49,33,45,34,27,90,60,32,30.15,29.92,29,4,29,0.01
2013-4-1,37,28,23,30,21,17,90,73,46,30.37,30.14,17,3,17,0.02
2013-4-2,55,49,39,33,27,25,57,44,36,30.32,30.25,8,0,9,0.00
2013-4-3,56,42,29,29,26,21,74,53,35,30.35,30.22,19,2,19,0.00
2013-4-4,64,47,31,41,33,24,84,60,40,30.24,30.06,17,2,17,0.00
2013-4-5,70,53,35,41,35,28,79,52,30,30.14,29.67,31,7,31,0.00
2013-4-6,71,60,50,45,42,38,77,53,34,29.76,29.57,26,4,30,0.00
2013-4-7,73,58,44,50,42,36,89,59,32,29.79,29.55,27,2,27,0.18
2013-4-8,68,58,46,60,53,44,95,85,72,29.65,29.60,18,3,21,0.00
2013-4-9,63,44,31,59,41,29,92,90,86,30.00,29.48,33,6,33,0.36
2013-4-10,33,31,29,30,29,27,93,92,91,30.05,29.91,16,0,16,0.01
2013-4-11,34,32,31,31,29,25,92,89,80,30.04,29.73,26,2,26,0.01
2013-4-12,45,36,30,33,28,24,87,75,55,30.06,29.82,25,5,25,0.02
2013-4-13,59,43,26,42,34,23,90,71,51,30.07,29.62,25,4,25,0.15
2013-4-14,64,52,42,52,40,29,87,68,41,29.69,29.27,31,7,31,0.00
2013-4-15,47,39,33,32,27,21,74,61,50,30.11,29.69,20,3,20,0.00
2013-4-16,48,42,34,34,29,26,77,61,46,30.26,30.09,26,5,26,0.00
2013-4-17,45,39,35,38,35,32,93,85,64,30.17,29.80,28,5,28,0.43
2013-4-18,35,32,29,32,28,25,93,87,74,30.00,29.77,34,9,34,0.20
2013-4-19,48,37,27,28,24,21,83,62,41,30.14,29.97,26,5,26,0.02
2013-4-20,47,38,26,30,25,20,80,62,44,30.26,30.12,23,4,23,0.00
2013-4-21,68,54,43,49,40,31,87,61,39,30.15,29.95,31,5,31,0.13
2013-4-22,52,42,32,49,39,27,94,90,83,30.27,29.92,27,4,27,0.97
2013-4-23,38,32,29,27,23,19,84,70,52,30.33,30.21,26,5,26,0.01
2013-4-24,60,41,25,38,28,21,84,63,29,30.27,30.09,29,2,29,0.00
2013-4-25,71,52,32,40,34,26,81,54,29,30.27,29.99,29,4,29,0.00
2013-4-26,73,58,48,51,44,37,85,60,40,30.15,29.98,19,4,19,0.00
2013-4-27,76,57,45,52,46,42,94,72,33,30.16,29.91,15,2,15,0.00
2013-4-28,84,65,46,56,50,43,92,63,32,29.92,29.63,25,4,25,0.00
2013-4-29,86,70,55,58,50,44,73,52,29,29.74,29.43,17,2,17,0.00
2013-4-30,73,67,59,58,48,34,62,51,35,29.87,29.41,27,3,27,0.09
2013-5-1,58,39,32,44,35,30,93,86,52,30.47,29.85,30,7,30,0.56
2013-5-2,51,41,33,34,30,26,93,67,46,30.61,30.43,30,4,30,0.32
2013-5-3,53,42,30,30,27,25,82,58,37,30.43,30.07,28,2,28,0.00
2013-5-4,42,40,38,37,34,28,87,78,58,30.19,30.01,28,4,28,0.00
2013-5-5,59,48,41,47,41,36,87,79,64,30.21,30.11,15,2,15,0.00
2013-5-6,71,55,38,48,43,35,94,68,36,30.17,30.02,10,0,10,0.00
2013-5-7,72,60,47,58,52,44,91,75,49,30.04,29.90,20,1,20,0.22
2013-5-8,66,61,56,57,55,52,89,83,71,29.93,29.85,15,2,15,0.01
2013-5-9,64,57,54,57,54,52,95,88,73,30.00,29.82,17,2,17,0.00
2013-5-10,72,59,50,53,49,46,91,71,43,30.10,29.99,16,1,16,0.00
2013-5-11,62,55,45,46,34,23,79,47,23,30.25,30.03,26,3,26,0.00
2013-5-12,70,54,37,38,32,24,76,46,26,30.26,30.08,12,0,12,0.00
2013-5-13,87,68,49,56,47,37,73,51,26,30.08,29.80,25,2,25,0.00
2013-5-14,102,82,60,58,55,47,83,45,18,29.80,29.56,37,4,37,0.00
2013-5-15,84,75,64,52,46,40,48,36,28,29.81,29.70,25,6,25,0.00
2013-5-16,85,74,62,63,58,48,83,58,43,29.79,29.68,21,2,21,0.00
2013-5-17,89,75,61,62,59,56,86,60,39,29.82,29.72,18,2,18,0.00
2013-5-18,84,73,62,69,64,58,91,73,55,29.80,29.60,33,5,33,0.68
2013-5-19,78,66,58,67,60,54,92,83,56,29.69,29.41,27,2,27,0.81
2013-5-20,76,65,56,58,54,50,91,71,45,29.61,29.47,26,5,26,0.00
2013-5-21,61,57,51,54,48,45,83,73,62,29.74,29.59,24,4,24,0.00
2013-5-22,63,54,49,51,47,45,92,78,63,30.00,29.74,22,4,22,0.00
2013-5-23,72,59,51,52,48,46,87,69,41,30.20,30.00,21,2,21,0.00
2013-5-24,75,64,51,57,50,45,87,64,47,30.24,29.94,31,5,31,0.00
2013-5-25,82,70,60,69,62,54,94,77,59,30.06,29.85,23,4,25,0.50
2013-5-26,84,73,68,71,66,64,88,79,63,29.89,29.71,23,4,23,0.00
2013-5-27,80,69,59,68,62,58,94,80,57,29.83,29.50,28,5,28,1.63
2013-5-28,82,71,62,66,62,58,94,76,52,29.67,29.55,24,2,24,0.00
2013-5-29,78,69,62,69,64,59,92,86,75,29.62,29.40,38,5,38,1.21
2013-5-30,81,67,59,64,57,48,92,73,41,29.58,29.44,22,4,22,0.04
2013-5-31,81,69,57,53,49,45,80,52,29,29.70,29.57,26,4,26,0.00
2013-6-1,66,58,53,52,49,45,83,70,57,30.05,29.65,30,6,30,0.00
2013-6-2,73,59,46,47,45,42,92,61,36,30.13,29.97,16,0,16,0.00
2013-6-3,77,64,51,55,50,45,84,61,43,29.99,29.73,29,5,29,0.00
2013-6-4,74,67,59,64,59,54,88,76,66,29.95,29.77,21,2,21,0.03
2013-6-5,75,64,55,60,51,48,86,64,41,30.01,29.92,22,2,22,0.05
2013-6-6,75,64,53,55,50,48,86,64,43,29.99,29.93,16,1,16,0.00
2013-6-7,80,66,49,54,49,45,89,59,32,30.01,29.83,14,1,14,0.00
2013-6-8,74,64,58,66,57,49,90,78,62,29.83,29.58,18,3,18,0.44
2013-6-9,76,66,59,60,56,54,85,72,55,29.82,29.69,27,4,30,0.00
2013-6-10,86,71,52,63,58,49,93,66,41,29.85,29.70,23,2,23,0.00
2013-6-11,93,81,68,72,65,58,86,59,39,29.73,29.56,28,4,28,0.00
2013-6-12,90,79,62,70,63,54,78,60,38,29.99,29.53,25,3,25,0.00
2013-6-13,80,66,56,61,56,52,87,71,43,30.09,29.93,15,1,15,0.71
2013-6-14,95,76,64,74,64,57,83,69,38,29.98,29.64,40,5,40,0.01
2013-6-15,83,76,68,69,66,61,90,72,52,29.88,29.73,22,1,22,0.00
2013-6-16,89,76,64,69,63,57,95,68,42,29.94,29.82,17,1,17,0.00
2013-6-17,92,79,66,62,59,56,71,52,33,29.97,29.86,10,0,10,0.00
2013-6-18,85,74,64,61,58,55,77,58,42,30.01,29.89,22,2,22,0.00
2013-6-19,87,76,63,68,62,59,88,65,45,29.93,29.80,24,4,24,0.00
2013-6-20,91,81,68,74,69,62,85,67,54,29.86,29.69,27,6,27,0.00
2013-6-21,100,86,76,73,69,64,79,59,32,29.74,29.64,31,6,31,0.00
2013-6-22,93,80,66,72,66,60,89,64,43,29.92,29.65,31,6,31,0.05
2013-6-23,82,74,63,71,66,59,92,77,57,29.86,29.65,25,3,25,0.98
2013-6-24,87,76,68,74,70,64,92,80,61,29.89,29.61,27,3,27,0.63
2013-6-25,92,80,68,77,71,62,89,73,56,29.68,29.55,16,2,23,0.19
2013-6-26,97,83,72,74,68,62,93,64,34,29.80,29.59,16,1,16,0.00
2013-6-27,86,77,70,70,67,62,86,71,55,29.93,29.79,25,2,25,0.08
2013-6-28,88,78,69,68,62,56,88,61,36,29.96,29.86,22,2,22,0.00
2013-6-29,83,73,63,59,57,55,81,60,43,29.91,29.85,25,2,25,0.00
2013-6-30,80,69,59,61,56,52,86,65,42,30.08,29.91,14,1,14,0.00
2013-7-1,84,71,54,58,53,49,84,57,33,30.16,30.07,14,0,14,0.00
2013-7-2,86,71,57,61,57,52,87,62,36,30.11,30.01,17,0,17,0.00
2013-7-3,88,73,58,62,58,53,92,63,32,30.02,29.88,10,0,10,0.00
2013-7-4,87,74,60,62,57,54,79,58,37,29.91,29.80,23,3,23,0.00
2013-7-5,91,78,68,66,61,57,74,57,38,29.83,29.73,24,3,24,0.00
2013-7-6,89,80,72,69,64,58,70,59,50,29.77,29.68,24,5,24,0.00
2013-7-7,96,84,73,74,68,62,81,61,41,29.83,29.71,19,3,19,0.05
2013-7-8,92,83,77,74,70,66,81,67,51,29.87,29.78,15,3,15,0.00
2013-7-9,100,87,74,74,71,61,76,60,41,29.87,29.70,24,1,24,0.00
2013-7-10,88,79,70,71,66,62,84,66,48,30.01,29.87,16,1,16,0.00
2013-7-11,89,77,66,65,62,59,84,62,44,30.06,29.86,20,4,20,0.00
2013-7-12,94,85,71,73,69,60,68,59,48,29.91,29.78,22,6,22,0.00
2013-7-13,95,84,76,75,71,68,78,66,49,29.85,29.77,20,5,21,0.00
2013-7-14,88,77,70,70,65,59,91,69,40,30.07,29.84,12,3,22,0.72
2013-7-15,90,78,65,69,64,60,83,65,42,30.13,30.03,16,2,16,0.00
2013-7-16,90,79,67,69,66,63,87,66,45,30.18,30.09,17,1,17,0.00
2013-7-17,93,82,70,70,68,65,85,65,46,30.23,30.07,15,1,15,0.00
2013-7-18,94,83,71,72,69,66,86,65,45,30.08,29.83,23,2,23,0.00
2013-7-19,94,82,73,75,68,63,78,63,41,29.87,29.80,15,1,16,0.07
2013-7-20,89,78,69,67,64,56,78,62,35,29.91,29.77,16,2,17,0.00
2013-7-21,91,80,68,72,69,65,90,70,48,29.84,29.69,14,2,14,0.00
2013-7-22,97,83,69,77,70,63,91,68,40,29.76,29.67,13,1,13,0.00
2013-7-23,82,73,64,67,64,60,92,74,58,29.93,29.75,31,1,31,0.59
2013-7-24,88,74,61,68,63,57,90,70,49,30.04,29.92,10,0,11,0.00
2013-7-25,83,73,67,68,65,62,86,75,51,29.98,29.92,16,1,16,0.00
2013-7-26,80,71,61,66,59,51,92,68,39,30.08,29.92,15,1,18,0.00
2013-7-27,77,66,55,52,50,47,84,60,37,30.11,29.97,14,0,14,0.00
2013-7-28,81,66,50,58,52,46,88,63,39,30.04,29.96,10,0,10,0.00
2013-7-29,65,63,60,63,59,55,95,89,73,30.00,29.95,14,3,14,0.43
2013-7-30,78,70,64,68,65,63,96,85,67,30.07,29.98,8,0,8,0.01
2013-7-31,87,75,63,69,66,61,94,75,51,30.10,29.99,5,0,10,0.00
2013-8-1,89,74,62,70,65,60,93,75,46,30.05,29.82,27,2,27,1.08
2013-8-2,83,74,65,69,66,61,92,79,61,29.95,29.73,23,2,27,0.14
2013-8-3,78,69,62,65,60,58,87,76,59,30.13,29.95,17,2,17,0.00
2013-8-4,77,69,63,69,62,56,90,78,69,30.12,29.95,20,4,20,0.00
2013-8-5,88,77,70,74,71,66,95,82,63,29.97,29.77,15,1,16,0.00
2013-8-6,90,79,69,75,71,65,94,77,59,29.84,29.72,17,2,17,0.00
2013-8-7,86,76,67,68,64,60,85,69,43,29.92,29.76,10,1,13,0.00
2013-8-8,81,72,65,67,64,61,88,78,59,29.97,29.88,9,0,9,0.00
2013-8-9,84,73,65,69,64,59,93,75,46,30.10,29.97,13,1,13,0.00
2013-8-10,85,72,59,68,62,55,92,72,50,30.14,30.01,11,1,14,0.00
2013-8-11,88,76,63,69,66,59,89,72,52,30.06,29.92,17,2,20,0.07
2013-8-12,87,75,66,71,66,62,93,76,50,30.01,29.92,13,0,13,0.12
2013-8-13,79,71,63,62,60,57,85,69,48,30.11,30.01,12,1,12,0.00
2013-8-14,75,67,60,64,59,54,87,78,60,30.13,29.99,14,2,15,0.03
2013-8-15,69,66,61,64,62,58,93,87,80,30.05,29.95,14,3,15,0.11
2013-8-16,72,66,61,62,60,58,93,81,68,30.12,30.04,15,2,15,0.00
2013-8-17,79,70,63,62,59,57,85,71,53,30.14,30.04,16,2,16,0.00
2013-8-18,82,70,57,64,60,54,88,71,54,30.10,29.98,17,2,17,0.00
2013-8-19,88,76,64,71,66,61,89,73,55,30.01,29.84,21,3,21,0.00
2013-8-20,92,79,69,72,69,65,88,72,52,29.89,29.81,21,3,21,0.00
2013-8-21,92,79,0,75,69,-12,87,72,54,31.00,28.38,17,2,17,0.00
2013-8-22,86,76,69,71,68,65,91,77,56,30.21,30.08,17,2,17,0.07
2013-8-23,90,79,70,73,70,68,93,74,51,30.20,30.07,20,3,20,0.00
2013-8-24,93,83,74,75,72,69,84,70,54,30.15,30.08,25,5,25,0.00
2013-8-25,96,83,72,74,71,68,88,68,47,30.22,30.13,25,4,25,0.00
2013-8-26,98,84,74,74,70,68,83,64,44,30.19,30.05,21,3,21,0.00
2013-8-27,98,84,73,73,68,65,76,61,41,30.08,30.00,22,2,22,0.00
2013-8-28,96,81,66,72,67,62,85,64,42,30.12,30.04,16,1,16,0.00
2013-8-29,97,83,69,74,71,66,92,68,46,30.12,30.00,12,1,16,0.00
2013-8-30,100,84,71,79,71,65,84,68,45,30.03,29.95,13,0,13,0.00
2013-8-31,97,83,73,74,71,68,90,70,39,30.04,29.89,20,0,20,0.00
2013-9-1,86,77,65,71,63,58,87,64,41,30.15,29.88,11,1,22,0.04
2013-9-2,84,70,57,62,58,53,91,67,43,30.26,30.15,5,0,13,0.00
2013-9-3,87,72,57,64,59,52,89,65,44,30.24,30.15,16,1,16,0.00
2013-9-4,86,73,63,67,61,57,82,69,41,30.30,30.17,15,1,15,0.00
2013-9-5,88,76,66,68,63,60,81,66,45,30.31,30.20,15,2,15,0.00
2013-9-6,95,80,66,71,66,61,84,65,46,30.22,30.01,19,3,19,0.00
2013-9-7,96,80,70,74,69,65,86,69,43,30.04,29.99,11,2,15,0.00
2013-9-8,98,83,70,74,71,67,93,70,39,30.04,29.89,14,2,14,0.00
2013-9-9,99,84,73,67,63,59,67,50,28,29.96,29.88,24,2,24,0.00
2013-9-10,98,80,70,71,64,59,91,61,35,30.19,29.96,23,1,23,0.68
2013-9-11,81,73,69,72,68,66,94,86,70,30.28,30.14,10,0,10,0.28
2013-9-12,82,71,63,67,58,50,93,67,39,30.38,30.26,16,1,16,0.01
2013-9-13,76,65,53,54,51,48,85,63,41,30.39,30.22,15,0,15,0.00
2013-9-14,76,67,56,60,54,50,79,65,49,30.23,30.01,22,3,22,0.00
2013-9-15,69,65,60,66,59,53,92,81,72,30.40,30.00,19,2,19,0.62
2013-9-16,63,59,56,55,53,51,93,81,72,30.48,30.35,19,4,19,0.09
2013-9-17,73,64,57,67,61,55,95,91,79,30.36,30.01,21,3,21,0.11
2013-9-18,92,78,67,72,68,64,93,73,50,30.02,29.80,18,4,22,0.00
2013-9-19,79,70,56,66,60,50,86,70,50,30.18,29.83,28,1,28,0.04
2013-9-20,73,60,48,52,46,43,87,64,38,30.28,30.15,21,1,21,0.00
2013-9-21,83,63,44,56,50,41,91,65,37,30.20,30.00,16,2,16,0.00
2013-9-22,81,68,56,55,52,50,86,61,38,30.03,29.90,27,4,27,0.00
2013-9-23,78,66,54,55,51,48,79,59,37,29.95,29.81,32,7,32,0.00
2013-9-24,69,63,56,58,55,52,88,76,63,30.08,29.80,17,1,19,0.00
2013-9-25,80,65,48,61,56,46,94,75,49,30.08,29.86,19,4,24,0.00
2013-9-26,89,75,63,62,60,57,86,62,39,29.90,29.82,32,8,32,0.00
2013-9-27,87,77,67,65,61,59,79,59,47,29.91,29.81,30,7,30,0.06
2013-9-28,76,61,50,63,49,42,91,67,40,30.24,29.78,28,3,28,0.51
2013-9-29,78,58,45,48,44,40,85,63,32,30.25,30.05,22,2,22,0.00
2013-9-30,83,66,51,56,50,46,81,59,36,30.05,29.85,17,2,21,0.00
2013-10-1,81,68,54,53,50,45,87,56,29,30.11,29.92,15,1,18,0.00
2013-10-2,85,72,60,65,59,46,87,65,47,30.10,29.94,23,2,23,0.00
2013-10-3,80,68,60,67,62,58,93,80,63,30.04,29.83,33,2,33,1.70
2013-10-4,84,66,45,70,58,34,89,75,50,30.08,29.74,31,7,31,0.01
2013-10-5,50,44,41,35,34,32,80,66,53,30.12,30.05,31,8,31,0.00
2013-10-6,61,48,41,45,38,32,89,70,34,30.25,30.05,29,5,29,0.00
2013-10-7,76,57,39,44,40,35,85,58,31,30.31,30.17,17,1,17,0.00
2013-10-8,78,63,50,50,45,40,69,53,35,30.17,30.01,29,5,29,0.00
2013-10-9,80,65,54,54,50,46,76,60,39,30.12,30.04,28,5,28,0.00
2013-10-10,81,68,58,60,56,52,82,66,48,30.11,29.88,29,6,29,0.00
2013-10-11,78,66,51,59,52,41,81,62,34,30.06,29.75,27,6,27,0.00
2013-10-12,67,54,42,42,37,33,83,58,28,30.48,30.06,17,1,17,0.00
2013-10-13,69,55,41,40,36,33,78,52,32,30.60,30.45,19,3,19,0.00
2013-10-14,59,54,46,57,47,36,93,78,48,30.45,29.88,32,7,32,1.09
2013-10-15,52,46,42,46,38,34,85,73,66,30.32,30.00,28,9,28,0.00
2013-10-16,57,47,39,40,35,28,89,66,34,30.32,30.16,19,1,19,0.00
2013-10-17,58,45,36,43,36,32,84,71,56,30.29,30.11,26,3,26,0.00
2013-10-18,51,41,32,35,30,26,87,68,39,30.37,30.25,11,0,11,0.00
2013-10-19,64,47,32,41,34,28,87,65,38,30.25,30.01,21,1,21,0.00
2013-10-20,65,51,41,43,38,35,80,63,40,30.23,29.92,21,2,21,0.00
2013-10-21,57,43,31,39,34,28,91,72,45,30.32,30.13,10,0,18,0.00
2013-10-22,53,46,33,43,37,29,86,72,57,30.33,30.10,24,2,24,0.00
2013-10-23,58,41,30,42,34,27,91,78,53,30.44,30.23,19,1,19,0.01
2013-10-24,51,40,30,35,28,24,89,64,37,30.63,30.44,13,0,13,0.00
2013-10-25,60,44,28,36,30,23,82,59,38,30.62,30.28,26,2,26,0.00
2013-10-26,53,44,31,36,31,25,84,62,39,30.44,30.25,18,1,18,0.00
2013-10-27,73,50,28,42,33,23,82,57,31,30.36,30.01,21,2,21,0.00
2013-10-28,52,46,39,40,36,32,87,69,58,30.38,30.13,23,6,23,0.11
2013-10-29,50,46,42,48,43,39,94,91,86,30.33,30.13,19,5,19,0.07
2013-10-30,51,45,40,49,43,37,95,93,88,30.19,29.97,19,1,19,0.02
2013-10-31,58,45,34,45,37,32,94,77,46,29.97,29.74,19,2,27,0.01
2013-11-1,59,47,40,42,37,34,84,69,43,30.23,29.84,33,3,33,0.00
2013-11-2,60,46,33,39,32,29,87,62,33,30.41,30.23,15,1,15,0.00
2013-11-3,58,50,41,39,35,30,68,56,44,30.26,29.89,34,7,34,0.00
2013-11-4,57,48,36,41,37,30,80,65,48,30.33,29.93,17,1,17,0.00
2013-11-5,43,38,33,38,34,29,93,85,68,30.33,30.03,24,4,24,1.33
2013-11-6,41,35,32,35,30,28,91,84,70,30.51,30.30,20,1,20,0.00
2013-11-7,51,39,30,33,28,24,92,67,38,30.66,30.47,19,1,19,0.01
2013-11-8,61,48,35,43,35,26,80,60,42,30.47,29.93,26,3,26,0.00
2013-11-9,62,49,38,39,35,31,84,59,39,30.54,30.14,14,1,14,0.00
2013-11-10,53,43,30,40,32,25,83,65,44,30.59,30.35,14,2,16,0.00
2013-11-11,47,33,18,43,25,10,91,72,55,31.01,30.30,26,3,26,0.00
2013-11-12,35,22,11,13,10,7,87,61,33,31.16,30.82,12,1,12,0.00
2013-11-13,57,39,25,35,24,11,64,54,43,30.82,30.19,25,4,25,0.00
2013-11-14,57,44,34,40,32,25,80,63,51,30.19,30.10,16,1,16,0.00
2013-11-15,56,42,27,41,33,24,90,73,49,30.11,29.77,19,3,19,0.00
2013-11-16,64,52,40,48,39,27,92,64,33,29.77,29.51,23,3,23,0.00
2013-11-17,55,47,34,41,35,28,83,63,45,30.28,29.50,30,4,30,0.00
2013-11-18,58,42,27,30,26,22,84,57,30,30.46,30.28,16,1,16,0.00
2013-11-19,62,48,34,36,28,23,68,48,35,30.37,30.03,33,6,33,0.00
2013-11-20,62,51,40,40,34,27,79,55,43,30.12,29.89,14,3,23,0.00
2013-11-21,40,26,19,34,19,14,86,76,67,30.85,30.12,23,7,30,0.00
2013-11-22,33,22,13,20,11,6,89,64,38,31.00,30.85,19,2,22,0.00
2013-11-23,24,19,12,16,8,2,81,62,41,31.15,30.91,15,0,15,0.00
2013-11-24,34,22,11,14,9,3,75,59,42,31.01,30.47,19,3,21,0.00
2013-11-25,46,33,23,32,22,10,82,65,45,30.47,30.37,17,2,17,0.00
2013-11-26,32,26,15,26,15,7,85,65,43,30.70,30.45,23,3,26,0.00
2013-11-27,35,23,7,20,12,2,83,64,43,30.70,30.30,22,2,22,0.00
2013-11-28,34,27,18,23,18,12,82,69,52,30.72,30.35,13,1,18,0.00
2013-11-29,48,32,17,29,21,12,81,66,48,30.72,30.36,18,2,18,0.00
2013-11-30,57,33,25,35,25,20,86,73,41,30.36,30.31,10,0,10,0.00
2013-12-2,64,54,39,38,34,30,69,50,38,29.79,29.70,10,0,12,0.00
2013-12-3,42,36,30,33,30,27,87,78,68,29.92,29.68,14,2,18,0.00
2013-12-4,30,20,14,27,14,5,90,80,65,30.39,29.89,28,8,28,0.00
2013-12-5,16,10,6,7,1,-6,78,64,49,30.75,30.36,27,5,27,0.00
2013-12-6,12,5,-1,2,-4,-7,92,66,49,31.03,30.74,12,2,17,0.00
2013-12-7,10,3,-5,4,-4,-11,83,71,52,31.07,30.69,11,1,11,0.00
2013-12-8,18,13,8,14,9,4,92,85,83,30.69,30.30,12,1,12,0.00
2013-12-9,13,6,-3,7,1,-7,85,81,74,30.66,30.42,24,3,24,0.00
2013-12-10,31,22,12,26,15,7,86,73,63,30.56,30.40,17,2,19,0.03
2013-12-11,29,11,2,24,4,-5,81,71,59,30.94,30.53,25,2,25,0.00
2013-12-12,32,21,9,22,13,2,81,73,64,30.76,30.34,14,1,14,0.00
2013-12-13,33,22,12,24,17,9,88,81,68,30.37,30.13,20,1,20,0.00
2013-12-14,26,19,14,19,14,10,87,81,69,30.51,30.36,23,2,23,0.00
2013-12-15,38,26,16,29,21,13,96,81,68,30.42,30.20,3,0,3,0.01
2013-12-16,51,33,18,37,26,14,89,75,53,30.43,30.21,15,1,15,0.00
2013-12-17,43,33,25,29,23,19,89,68,40,30.55,30.31,18,2,18,0.00
2013-12-18,56,41,32,34,28,22,77,60,43,30.32,29.92,20,2,20,0.00
2013-12-19,36,28,14,28,21,10,86,76,68,30.17,29.93,24,4,24,0.00
2013-12-20,19,14,10,15,10,6,86,83,78,30.29,30.16,22,2,22,0.00
2013-12-21,24,20,16,16,14,11,83,76,67,30.18,30.04,18,1,18,0.00
2013-12-22,23,17,10,18,10,3,92,74,58,30.68,30.16,20,3,20,0.00
2013-12-23,14,8,2,5,0,-4,81,68,53,30.91,30.68,18,2,18,0.00
2013-12-24,29,17,8,26,12,1,98,81,65,30.81,30.40,28,5,28,0.00
2013-12-25,43,29,16,30,20,13,90,73,50,30.57,30.50,26,2,26,0.00
2013-12-26,52,35,23,29,21,15,78,59,34,30.51,30.35,15,1,15,0.00
2013-12-27,62,40,20,31,23,14,81,56,28,30.51,30.28,27,1,27,0.00
2013-12-28,60,40,14,33,25,5,78,58,29,30.40,29.95,32,5,32,0.00
2013-12-29,15,9,4,6,-5,-10,74,53,34,30.67,30.39,30,5,30,0.00
2013-12-30,45,22,4,29,9,-9,76,56,48,30.57,30.34,28,4,28,0.00
2013-12-31,48,21,10,29,12,5,92,71,42,30.55,30.22,12,2,17,0.00
2014-1-1,11,8,6,5,3,2,84,80,75,30.72,30.36,18,2,18,0.00
2014-1-2,13,7,2,7,2,-2,92,79,72,30.78,30.66,11,0,11,0.00